Regional Weather Roundup
Issued by NWS

Home | Current Version | Previous Version | Graphics & Text | Print | Product List | Glossary On
Versions: 1 2 3 4 5 6 7 8 9 10 11 12 13 14 15 16 17 18 19 20 21 22 23 24 25 26 27 28 29 30 31 32 33 34 35 36 37 38 39 40 41 42 43 44 45 46 47 48 49 50
942
ASUS45 KBOI 202210
RWRID

IDAHO REGIONAL WEATHER ROUNDUP
NATIONAL WEATHER SERVICE BOISE ID
400 PM MDT FRI OCT 20 2017

NOTE: "FAIR" INDICATES FEW OR NO CLOUDS BELOW 12000 FEET
WITH NO SIGNIFICANT WEATHER AND/OR OBSTRUCTIONS TO VISIBILITY

IDZ012-014-202300-
SOUTHWEST IDAHO


CITY           SKY/WX    TMP DP  RH WIND       PRES   REMARKS
BOISE          PTSUNNY   50  33  52 W10G17    29.84S
CALDWELL       CLOUDY    55  30  38 SW10G22   29.84R
MOUNTAIN HOME  PTSUNNY   52  30  42 NW20      29.84R
$$

IDZ016-017-202300-
SOUTHCENTRAL IDAHO


CITY           SKY/WX    TMP DP  RH WIND       PRES   REMARKS
BURLEY         MOSUNNY   45  36  70 W13G23    29.83S
JEROME         PTSUNNY   47  34  60 SW20      29.84R
TWIN FALLS     LGT RAIN  40  34  79 W22G28    29.86R WCI  30
$$

IDZ019>023-202300-
SOUTHEAST IDAHO


CITY           SKY/WX    TMP DP  RH WIND       PRES   REMARKS
IDAHO FALLS    CLOUDY    46  30  53 SW24G44   29.72R
POCATELLO      CLOUDY    47  30  51 SW33G41   29.81R
REXBURG        CLOUDY    42  28  57 S25G36    29.69R
$$

IDZ006-010-011-018-031-032-202300-
CENTRAL IDAHO MOUNTAINS


CITY           SKY/WX    TMP DP  RH WIND       PRES   REMARKS
MCCALL         CLOUDY    37  32  82 SE5       29.76R WCI  33
HAILEY         MOSUNNY   46  21  36 W12G23    29.74R
STANLEY          N/A     35  27  72 NE12G20   29.77R WCI  27
SALMON         CLOUDY    44  34  67 SW5       29.71R
CHALLIS        CLOUDY    45  23  42 W12       29.69R
$$

IDZ002-004-006-007-026-202300-
NORTHERN IDAHO


CITY           SKY/WX    TMP DP  RH WIND       PRES   REMARKS
LEWISTON       PTSUNNY   59  35  40 W21G29    29.73R
LOWELL           N/A     43  39  86 CALM      29.78S
COEUR D`ALENE  CLOUDY    46  39  76 SE6       29.67R
MULLAN PASS    SNOW      29  27  92 VRB6      29.62R VSB 1/4 WCI  23
$$




USA.gov is the U.S. government's official web portal to all federal, state and local government web resources and services.